User: anonymous   Login
Location: Unspecified
(0.0000°N, 0.0000°E)
Time: 10:33:19
(UTC+00:00)
Language:

NOAA 11 - Orbit

View from above orbital plane
View from above orbital plane
View from above satellite
View from above satellite

Ground track
Ground track

The orbit data is extracted from the following two-line orbital elements,

1 19531U 88089A   18173.73296347 -.00000048 +00000-0 -32679-5 0  9999
2 19531 098.4978 220.9346 0012183 056.8323 303.4019 14.15227299534918
Epoch (UTC): 22 June 2018 17:35:28
Eccentricity: 0.0012183
inclination: 98.4978°
perigee height: 833 km
apogee height: 850 km
right ascension of ascending node: 220.9346°
argument of perigee: 56.8323°
revolutions per day: 14.15227299
mean anomaly at epoch: 303.4019°
orbit number at epoch: 53491

The dashed part of the orbit path shows where the satellite is in the earth's shadow,  

DLR